Location: Unspecified
(0.0000°N, 0.0000°E)
Time: 22:56:05
(UTC+00:00)

A-11 Canister half - Pass Details

Date: 09 October 2020
Orbit: 1515 x 1685 km, 47.2° (Epoch: 30 October)

Event Time Altitude Azimuth Distance (km) Brightness Sun altitude
Rises 21:23:44 0° 211° (SSW) 4,936 12.0 -53.6°
Reaches altitude 10° 21:27:01 10° 206° (SSW) 3,948 11.3 -54.4°
Enters shadow 21:28:44 17° 203° (SSW) 3,445 10.9 -54.9°
